Time,TemperatureF,DewpointF,PressureIn,WindDirection,WindDirectionDegrees,WindSpeedMPH,WindSpeedGustMPH,Humidity,HourlyPrecipIn,Conditions,Clouds,dailyrainin,SoftwareType,DateUTC
2013-05-21 00:01:00,63.7,54.5,0.00,ESE,104,0.0,0.0,72,0.00,,,0.00,VWS V13.01,2013-05-21 04:01:00,
2013-05-21 00:02:00,63.7,54.9,0.00,ESE,104,0.0,0.0,73,0.00,,,0.00,VWS V13.01,2013-05-21 04:02:00,
2013-05-21 00:07:00,64.2,55.4,0.00,ESE,104,0.0,0.0,73,0.00,,,0.00,VWS V13.01,2013-05-21 04:07:00,
2013-05-21 00:12:00,64.4,55.9,0.00,East,83,0.0,0.0,74,0.00,,,0.00,VWS V13.01,2013-05-21 04:12:00,
2013-05-21 00:17:00,63.7,55.2,0.00,East,101,2.2,2.7,74,0.00,,,0.00,VWS V13.01,2013-05-21 04:17:00,
2013-05-21 00:23:00,63.3,54.9,0.00,East,92,2.2,2.2,74,0.00,,,0.00,VWS V13.01,2013-05-21 04:23:00,
2013-05-21 00:28:00,63.7,56.0,0.00,ENE,73,0.0,0.0,76,0.00,,,0.00,VWS V13.01,2013-05-21 04:28:00,
2013-05-21 00:33:00,63.9,56.5,0.00,ESE,112,2.7,2.7,77,0.00,,,0.00,VWS V13.01,2013-05-21 04:33:00,
2013-05-21 00:38:00,63.5,56.5,0.00,East,81,0.0,0.0,78,0.00,,,0.00,VWS V13.01,2013-05-21 04:38:00,
2013-05-21 00:43:00,63.7,57.0,0.00,ESE,114,0.0,2.2,79,0.00,,,0.00,VWS V13.01,2013-05-21 04:43:00,
2013-05-21 00:48:00,63.1,56.5,0.00,ESE,109,2.2,2.7,79,0.00,,,0.00,VWS V13.01,2013-05-21 04:48:00,
2013-05-21 00:53:00,63.3,56.7,0.00,East,95,0.0,3.1,79,0.00,,,0.00,VWS V13.01,2013-05-21 04:53:00,
2013-05-21 00:58:00,63.3,57.0,0.00,East,89,2.7,3.6,80,0.00,,,0.00,VWS V13.01,2013-05-21 04:58:00,
2013-05-21 01:03:00,63.5,57.2,0.00,ESE,104,0.0,0.0,80,0.00,,,0.00,VWS V13.01,2013-05-21 05:03:00,
2013-05-21 01:08:00,63.0,56.7,0.00,East,84,2.7,2.7,80,0.00,,,0.00,VWS V13.01,2013-05-21 05:08:00,
2013-05-21 01:13:00,63.5,57.9,0.00,ESE,103,0.0,0.0,82,0.00,,,0.00,VWS V13.01,2013-05-21 05:13:00,
2013-05-21 01:18:00,63.9,58.3,0.00,NE,55,0.0,0.0,82,0.00,,,0.00,VWS V13.01,2013-05-21 05:18:00,
2013-05-21 01:23:00,64.2,58.6,0.00,ENE,57,0.0,0.0,82,0.00,,,0.00,VWS V13.01,2013-05-21 05:23:00,
2013-05-21 01:29:00,64.4,58.8,0.00,NE,39,0.0,0.0,82,0.00,,,0.00,VWS V13.01,2013-05-21 05:29:00,
2013-05-21 01:34:00,64.8,59.1,0.00,ENE,76,2.7,2.7,82,0.00,,,0.00,VWS V13.01,2013-05-21 05:34:00,
2013-05-21 01:39:00,65.1,59.5,0.00,NE,49,0.0,0.0,82,0.00,,,0.00,VWS V13.01,2013-05-21 05:39:00,
2013-05-21 01:44:00,65.1,59.5,0.00,NNE,13,0.0,3.1,82,0.00,,,0.00,VWS V13.01,2013-05-21 05:44:00,
2013-05-21 01:49:00,65.1,59.5,0.00,NE,40,0.0,0.0,82,0.00,,,0.00,VWS V13.01,2013-05-21 05:49:00,
2013-05-21 01:54:00,65.1,59.5,0.00,NE,34,0.0,0.0,82,0.00,,,0.00,VWS V13.01,2013-05-21 05:54:00,
2013-05-21 01:59:00,65.1,59.2,0.00,NNW,341,0.0,0.0,81,0.00,,,0.00,VWS V13.01,2013-05-21 05:59:00,
2013-05-21 02:04:00,64.8,58.8,0.00,North,5,2.7,2.7,81,0.00,,,0.00,VWS V13.01,2013-05-21 06:04:00,
2013-05-21 02:09:00,64.9,59.0,0.00,NE,45,0.0,0.0,81,0.00,,,0.00,VWS V13.01,2013-05-21 06:09:00,
2013-05-21 02:14:00,64.9,59.0,0.00,NE,42,0.0,0.0,81,0.00,,,0.00,VWS V13.01,2013-05-21 06:14:00,
2013-05-21 02:20:00,65.1,59.5,0.00,East,90,0.0,0.0,82,0.00,,,0.00,VWS V13.01,2013-05-21 06:20:00,
2013-05-21 02:25:00,64.9,59.3,0.00,ESE,103,0.0,3.1,82,0.00,,,0.00,VWS V13.01,2013-05-21 06:25:00,
2013-05-21 02:30:00,64.2,58.3,0.00,ESE,103,0.0,0.0,81,0.00,,,0.00,VWS V13.01,2013-05-21 06:30:00,
2013-05-21 02:35:00,64.2,58.3,0.00,East,83,0.0,0.0,81,0.00,,,0.00,VWS V13.01,2013-05-21 06:35:00,
2013-05-21 02:40:00,64.0,58.1,0.00,NE,41,0.0,2.7,81,0.00,,,0.00,VWS V13.01,2013-05-21 06:40:00,
2013-05-21 02:45:00,64.2,58.6,0.00,NNE,29,0.0,0.0,82,0.00,,,0.00,VWS V13.01,2013-05-21 06:45:00,
2013-05-21 02:50:00,64.4,58.5,0.00,ENE,70,0.0,0.0,81,0.00,,,0.00,VWS V13.01,2013-05-21 06:50:00,
2013-05-21 02:55:00,64.6,58.6,0.00,ENE,58,2.7,2.7,81,0.00,,,0.00,VWS V13.01,2013-05-21 06:55:00,
2013-05-21 03:00:00,64.9,59.3,0.00,East,92,0.0,0.0,82,0.00,,,0.00,VWS V13.01,2013-05-21 07:00:00,
2013-05-21 03:05:00,64.8,58.8,0.00,East,81,0.0,0.0,81,0.00,,,0.00,VWS V13.01,2013-05-21 07:05:00,
2013-05-21 03:10:00,64.6,58.6,0.00,ESE,105,0.0,0.0,81,0.00,,,0.00,VWS V13.01,2013-05-21 07:10:00,
2013-05-21 03:16:00,64.8,58.8,0.00,ENE,70,0.0,0.0,81,0.00,,,0.00,VWS V13.01,2013-05-21 07:16:00,
2013-05-21 03:21:00,64.2,58.3,0.00,East,101,0.0,0.0,81,0.00,,,0.00,VWS V13.01,2013-05-21 07:21:00,
2013-05-21 03:26:00,63.3,57.0,0.00,East,101,0.0,0.0,80,0.00,,,0.00,VWS V13.01,2013-05-21 07:26:00,
2013-05-21 03:31:00,63.0,56.7,0.00,East,101,0.0,0.0,80,0.00,,,0.00,VWS V13.01,2013-05-21 07:31:00,
2013-05-21 03:36:00,63.0,56.7,0.00,East,90,0.0,0.0,80,0.00,,,0.00,VWS V13.01,2013-05-21 07:36:00,
2013-05-21 03:41:00,63.5,57.6,0.00,East,88,0.0,0.0,81,0.00,,,0.00,VWS V13.01,2013-05-21 07:41:00,
2013-05-21 03:46:00,63.7,57.8,0.00,ENE,74,0.0,3.6,81,0.00,,,0.00,VWS V13.01,2013-05-21 07:46:00,
2013-05-21 03:51:00,64.0,58.1,0.00,ENE,72,0.0,0.0,81,0.00,,,0.00,VWS V13.01,2013-05-21 07:51:00,
2013-05-21 03:56:00,64.2,58.3,0.00,NNE,33,0.0,0.0,81,0.00,,,0.00,VWS V13.01,2013-05-21 07:56:00,
2013-05-21 04:01:00,63.7,57.8,0.00,NNE,33,0.0,0.0,81,0.00,,,0.00,VWS V13.01,2013-05-21 08:01:00,
2013-05-21 04:07:00,63.3,57.4,0.00,NNE,33,0.0,0.0,81,0.00,,,0.00,VWS V13.01,2013-05-21 08:07:00,
2013-05-21 04:12:00,63.0,57.0,0.00,ESE,104,0.0,3.1,81,0.00,,,0.00,VWS V13.01,2013-05-21 08:12:00,
2013-05-21 04:17:00,62.6,56.7,0.00,NE,54,0.0,0.0,81,0.00,,,0.00,VWS V13.01,2013-05-21 08:17:00,
2013-05-21 04:22:00,62.4,56.9,0.00,East,85,0.0,0.0,82,0.00,,,0.00,VWS V13.01,2013-05-21 08:22:00,
2013-05-21 04:27:00,62.6,56.7,0.00,East,87,0.0,0.0,81,0.00,,,0.00,VWS V13.01,2013-05-21 08:27:00,
2013-05-21 04:32:00,62.4,56.9,0.00,ENE,70,3.1,3.1,82,0.00,,,0.00,VWS V13.01,2013-05-21 08:32:00,
2013-05-21 04:37:00,63.5,58.2,0.00,NE,48,3.1,3.6,83,0.00,,,0.00,VWS V13.01,2013-05-21 08:37:00,
2013-05-21 04:42:00,64.2,59.0,0.00,ENE,70,0.0,3.6,83,0.00,,,0.00,VWS V13.01,2013-05-21 08:42:00,
2013-05-21 04:47:00,63.3,57.7,0.00,ENE,72,0.0,0.0,82,0.00,,,0.00,VWS V13.01,2013-05-21 08:47:00,
2013-05-21 04:52:00,62.4,56.9,0.00,East,90,2.2,2.2,82,0.00,,,0.00,VWS V13.01,2013-05-21 08:52:00,
2013-05-21 04:57:00,62.4,57.2,0.00,SE,140,0.0,0.0,83,0.00,,,0.00,VWS V13.01,2013-05-21 08:57:00,
2013-05-21 05:02:00,63.1,58.2,0.00,East,91,0.0,0.0,84,0.00,,,0.00,VWS V13.01,2013-05-21 09:02:00,
2013-05-21 05:08:00,63.5,58.6,0.00,East,83,0.0,0.0,84,0.00,,,0.00,VWS V13.01,2013-05-21 09:08:00,
2013-05-21 05:13:00,63.5,58.6,0.00,East,79,0.0,0.0,84,0.00,,,0.00,VWS V13.01,2013-05-21 09:13:00,
2013-05-21 05:18:00,63.3,58.4,0.00,NNE,19,0.0,0.0,84,0.00,,,0.00,VWS V13.01,2013-05-21 09:18:00,
2013-05-21 05:23:00,63.0,57.7,0.00,North,3,0.0,0.0,83,0.00,,,0.00,VWS V13.01,2013-05-21 09:23:00,
2013-05-21 05:28:00,63.3,58.4,0.00,NE,37,3.1,3.1,84,0.00,,,0.00,VWS V13.01,2013-05-21 09:28:00,
2013-05-21 05:33:00,64.2,59.6,0.00,East,97,4.0,5.4,85,0.00,,,0.00,VWS V13.01,2013-05-21 09:33:00,
2013-05-21 05:38:00,63.9,59.6,0.00,ESE,113,3.6,3.6,86,0.00,,,0.00,VWS V13.01,2013-05-21 09:38:00,
2013-05-21 05:43:00,64.0,59.8,0.00,ESE,104,0.0,0.0,86,0.00,,,0.00,VWS V13.01,2013-05-21 09:43:00,
2013-05-21 05:48:00,64.0,60.1,0.00,ESE,111,0.0,0.0,87,0.00,,,0.00,VWS V13.01,2013-05-21 09:48:00,
2013-05-21 05:54:00,63.7,59.4,0.00,NE,42,0.0,0.0,86,0.00,,,0.00,VWS V13.01,2013-05-21 09:54:00,
2013-05-21 05:59:00,64.0,60.1,0.00,East,101,0.0,0.0,87,0.00,,,0.00,VWS V13.01,2013-05-21 09:59:00,
2013-05-21 06:04:00,64.2,60.3,0.00,ENE,76,0.0,4.9,87,0.00,,,0.00,VWS V13.01,2013-05-21 10:04:00,
2013-05-21 06:09:00,64.6,60.6,0.00,ENE,73,0.0,3.6,87,0.00,,,0.00,VWS V13.01,2013-05-21 10:09:00,
2013-05-21 06:14:00,64.8,60.8,0.00,East,98,0.0,0.0,87,0.00,,,0.00,VWS V13.01,2013-05-21 10:14:00,
2013-05-21 06:19:00,64.9,61.0,0.00,NNE,14,0.0,0.0,87,0.00,,,0.00,VWS V13.01,2013-05-21 10:19:00,
2013-05-21 06:24:00,65.1,61.2,0.00,NNE,14,0.0,0.0,87,0.00,,,0.00,VWS V13.01,2013-05-21 10:24:00,
2013-05-21 06:29:00,64.8,60.5,0.00,SE,126,0.0,0.0,86,0.00,,,0.00,VWS V13.01,2013-05-21 10:29:00,
2013-05-21 06:34:00,64.4,60.1,0.00,ENE,74,0.0,0.0,86,0.00,,,0.00,VWS V13.01,2013-05-21 10:34:00,
2013-05-21 06:39:00,64.8,60.5,0.00,East,93,0.0,0.0,86,0.00,,,0.00,VWS V13.01,2013-05-21 10:39:00,
2013-05-21 06:44:00,65.5,61.5,0.00,NE,38,2.7,2.7,87,0.00,,,0.00,VWS V13.01,2013-05-21 10:44:00,
2013-05-21 06:50:00,66.0,62.0,0.00,East,100,0.0,0.0,87,0.00,,,0.00,VWS V13.01,2013-05-21 10:50:00,
2013-05-21 06:55:00,66.2,62.2,0.00,ESE,104,2.7,2.7,87,0.00,,,0.00,VWS V13.01,2013-05-21 10:55:00,
2013-05-21 07:00:00,66.2,61.9,0.00,East,95,2.2,3.1,86,0.00,,,0.00,VWS V13.01,2013-05-21 11:00:00,
2013-05-21 07:05:00,66.0,62.0,0.00,ESE,106,4.0,4.0,87,0.00,,,0.00,VWS V13.01,2013-05-21 11:05:00,
2013-05-21 07:10:00,66.0,61.7,0.00,East,81,0.0,3.6,86,0.00,,,0.00,VWS V13.01,2013-05-21 11:10:00,
2013-05-21 07:15:00,66.0,61.7,0.00,SE,126,0.0,4.0,86,0.00,,,0.00,VWS V13.01,2013-05-21 11:15:00,
2013-05-21 07:20:00,66.2,61.6,0.00,ENE,71,3.6,4.9,85,0.00,,,0.00,VWS V13.01,2013-05-21 11:20:00,
2013-05-21 07:25:00,66.6,61.9,0.00,East,92,2.7,2.7,85,0.00,,,0.00,VWS V13.01,2013-05-21 11:25:00,
2013-05-21 07:30:00,67.1,62.1,0.00,East,83,0.0,0.0,84,0.00,,,0.00,VWS V13.01,2013-05-21 11:30:00,
2013-05-21 07:35:00,68.0,63.0,0.00,North,2,0.0,0.0,84,0.00,,,0.00,VWS V13.01,2013-05-21 11:35:00,
2013-05-21 07:40:00,68.4,63.3,0.00,North,2,0.0,0.0,84,0.00,,,0.00,VWS V13.01,2013-05-21 11:40:00,
2013-05-21 07:46:00,68.0,62.7,0.00,ESE,113,0.0,0.0,83,0.00,,,0.00,VWS V13.01,2013-05-21 11:46:00,
2013-05-21 07:51:00,68.4,62.7,0.00,ESE,108,0.0,0.0,82,0.00,,,0.00,VWS V13.01,2013-05-21 11:51:00,
2013-05-21 07:56:00,68.9,62.8,0.00,ESE,107,3.1,3.6,81,0.00,,,0.00,VWS V13.01,2013-05-21 11:56:00,
2013-05-21 08:01:00,69.8,62.6,0.00,South,172,0.0,0.0,78,0.00,,,0.00,VWS V13.01,2013-05-21 12:01:00,
2013-05-21 08:06:00,70.2,61.5,0.00,NE,45,0.0,3.1,74,0.00,,,0.00,VWS V13.01,2013-05-21 12:06:00,
2013-05-21 08:11:00,70.2,57.9,0.00,ESE,123,6.3,6.3,65,0.00,,,0.00,VWS V13.01,2013-05-21 12:11:00,
2013-05-21 08:16:00,70.7,56.2,0.00,East,79,2.7,2.7,60,0.00,,,0.00,VWS V13.01,2013-05-21 12:16:00,
2013-05-21 08:21:00,71.1,54.6,0.00,ESE,117,0.0,2.2,56,0.00,,,0.00,VWS V13.01,2013-05-21 12:21:00,
2013-05-21 08:26:00,71.4,54.9,0.00,ESE,121,2.7,2.7,56,0.00,,,0.00,VWS V13.01,2013-05-21 12:26:00,
2013-05-21 08:31:00,72.0,54.4,0.00,East,82,0.0,0.0,54,0.00,,,0.00,VWS V13.01,2013-05-21 12:31:00,
2013-05-21 08:36:00,72.3,51.0,0.00,SSW,194,0.0,0.0,47,0.00,,,0.00,VWS V13.01,2013-05-21 12:36:00,
2013-05-21 08:41:00,72.5,50.6,0.00,SSE,158,2.2,3.1,46,0.00,,,0.00,VWS V13.01,2013-05-21 12:41:00,
2013-05-21 08:47:00,73.2,51.8,0.00,ESE,121,0.0,0.0,47,0.00,,,0.00,VWS V13.01,2013-05-21 12:47:00,
2013-05-21 08:52:00,73.8,50.5,0.00,South,170,0.0,0.0,44,0.00,,,0.00,VWS V13.01,2013-05-21 12:52:00,
2013-05-21 08:57:00,74.3,49.8,0.00,West,271,0.0,0.0,42,0.00,,,0.00,VWS V13.01,2013-05-21 12:57:00,
2013-05-21 09:02:00,75.2,49.9,0.00,NE,49,0.0,2.2,41,0.00,,,0.00,VWS V13.01,2013-05-21 13:02:00,
2013-05-21 09:07:00,75.4,45.9,0.00,SSW,207,3.6,3.6,35,0.00,,,0.00,VWS V13.01,2013-05-21 13:07:00,
2013-05-21 09:12:00,75.0,46.3,0.00,SSE,160,2.7,4.9,36,0.00,,,0.00,VWS V13.01,2013-05-21 13:12:00,
2013-05-21 09:17:00,75.2,46.4,0.00,SSE,155,2.7,4.0,36,0.00,,,0.00,VWS V13.01,2013-05-21 13:17:00,
2013-05-21 09:22:00,75.2,45.7,0.00,SSW,205,7.2,7.2,35,0.00,,,0.00,VWS V13.01,2013-05-21 13:22:00,
2013-05-21 09:27:00,75.6,46.8,0.00,South,180,3.6,3.6,36,0.00,,,0.00,VWS V13.01,2013-05-21 13:27:00,
2013-05-21 09:32:00,75.9,46.3,0.00,SSW,213,2.2,2.2,35,0.00,,,0.00,VWS V13.01,2013-05-21 13:32:00,
2013-05-21 09:37:00,76.8,47.1,0.00,West,271,3.6,4.0,35,0.00,,,0.00,VWS V13.01,2013-05-21 13:37:00,
2013-05-21 09:42:00,76.8,44.8,0.00,West,273,4.0,4.9,32,0.00,,,0.00,VWS V13.01,2013-05-21 13:42:00,
2013-05-21 09:47:00,76.8,45.6,0.00,West,268,4.0,4.0,33,0.00,,,0.00,VWS V13.01,2013-05-21 13:47:00,
2013-05-21 09:52:00,77.0,44.9,0.00,SE,136,0.0,0.0,32,0.00,,,0.00,VWS V13.01,2013-05-21 13:52:00,
2013-05-21 09:58:00,77.4,45.2,0.00,SSW,213,0.0,0.0,32,0.00,,,0.00,VWS V13.01,2013-05-21 13:58:00,
2013-05-21 10:03:00,77.5,44.5,0.00,SW,234,0.0,0.0,31,0.00,,,0.00,VWS V13.01,2013-05-21 14:03:00,
2013-05-21 10:08:00,78.1,45.8,0.00,South,187,0.0,2.2,32,0.00,,,0.00,VWS V13.01,2013-05-21 14:08:00,
2013-05-21 10:13:00,78.8,44.8,0.00,WSW,245,2.7,4.5,30,0.00,,,0.00,VWS V13.01,2013-05-21 14:13:00,
2013-05-21 10:18:00,78.6,44.6,0.00,West,262,2.7,2.7,30,0.00,,,0.00,VWS V13.01,2013-05-21 14:18:00,
2013-05-21 10:23:00,79.0,44.9,0.00,SW,233,3.6,3.6,30,0.00,,,0.00,VWS V13.01,2013-05-21 14:23:00,
2013-05-21 10:28:00,79.5,45.4,0.00,SSW,206,3.6,3.6,30,0.00,,,0.00,VWS V13.01,2013-05-21 14:28:00,
2013-05-21 10:33:00,80.2,46.0,0.00,SSW,209,2.7,2.7,30,0.00,,,0.00,VWS V13.01,2013-05-21 14:33:00,
2013-05-21 10:38:00,81.0,43.9,0.00,West,274,4.0,5.4,27,0.00,,,0.00,VWS V13.01,2013-05-21 14:38:00,
2013-05-21 10:44:00,80.2,46.0,0.00,SW,234,4.0,4.0,30,0.00,,,0.00,VWS V13.01,2013-05-21 14:44:00,
2013-05-21 10:49:00,80.4,43.4,0.00,SSW,192,3.6,4.5,27,0.00,,,0.00,VWS V13.01,2013-05-21 14:49:00,
2013-05-21 10:54:00,80.8,41.7,0.00,SSW,193,2.2,5.4,25,0.00,,,0.00,VWS V13.01,2013-05-21 14:54:00,
2013-05-21 10:59:00,81.7,45.4,0.00,SE,125,2.7,3.1,28,0.00,,,0.00,VWS V13.01,2013-05-21 14:59:00,
2013-05-21 11:04:00,82.0,42.8,0.00,East,90,5.4,5.4,25,0.00,,,0.00,VWS V13.01,2013-05-21 15:04:00,
2013-05-21 11:09:00,81.9,40.5,0.00,SSW,203,2.7,4.0,23,0.00,,,0.00,VWS V13.01,2013-05-21 15:09:00,
2013-05-21 11:14:00,81.7,41.4,0.00,ESE,108,5.4,6.3,24,0.00,,,0.00,VWS V13.01,2013-05-21 15:14:00,
2013-05-21 11:19:00,81.1,42.0,0.00,East,101,5.4,5.8,25,0.00,,,0.00,VWS V13.01,2013-05-21 15:19:00,
2013-05-21 11:24:00,81.3,42.2,0.00,SE,134,4.0,4.5,25,0.00,,,0.00,VWS V13.01,2013-05-21 15:24:00,
2013-05-21 11:29:00,81.7,44.5,0.00,SE,136,2.7,2.7,27,0.00,,,0.00,VWS V13.01,2013-05-21 15:29:00,
2013-05-21 11:34:00,82.9,41.4,0.00,ESE,114,4.0,4.0,23,0.00,,,0.00,VWS V13.01,2013-05-21 15:34:00,
2013-05-21 11:40:00,84.4,41.4,0.00,SSE,159,0.0,0.0,22,0.00,,,0.00,VWS V13.01,2013-05-21 15:40:00,
2013-05-21 11:45:00,85.1,39.6,0.00,SSE,166,3.1,5.8,20,0.00,,,0.00,VWS V13.01,2013-05-21 15:45:00,
2013-05-21 11:50:00,84.7,39.3,0.00,ESE,119,0.0,0.0,20,0.00,,,0.00,VWS V13.01,2013-05-21 15:50:00,
2013-05-21 11:55:00,84.9,39.4,0.00,NNE,28,0.0,2.7,20,0.00,,,0.00,VWS V13.01,2013-05-21 15:55:00,
2013-05-21 12:00:00,85.5,38.5,0.00,West,264,2.2,2.7,19,0.00,,,0.00,VWS V13.01,2013-05-21 16:00:00,
2013-05-21 12:05:00,84.9,38.1,0.00,SW,221,0.0,0.0,19,0.00,,,0.00,VWS V13.01,2013-05-21 16:05:00,
2013-05-21 12:10:00,85.3,39.7,0.00,SE,139,3.6,4.0,20,0.00,,,0.00,VWS V13.01,2013-05-21 16:10:00,
2013-05-21 12:15:00,85.6,40.0,0.00,ESE,103,0.0,0.0,20,0.00,,,0.00,VWS V13.01,2013-05-21 16:15:00,
2013-05-21 12:20:00,86.4,39.3,0.00,WSW,237,3.1,3.1,19,0.00,,,0.00,VWS V13.01,2013-05-21 16:20:00,
2013-05-21 12:25:00,86.9,39.7,0.00,SW,231,2.7,3.6,19,0.00,,,0.00,VWS V13.01,2013-05-21 16:25:00,
2013-05-21 12:30:00,86.2,37.8,0.00,WSW,257,3.6,4.0,18,0.00,,,0.00,VWS V13.01,2013-05-21 16:30:00,
2013-05-21 12:35:00,85.8,40.2,0.00,South,187,0.0,0.0,20,0.00,,,0.00,VWS V13.01,2013-05-21 16:35:00,
2013-05-21 12:41:00,86.2,37.8,0.00,SE,127,2.2,3.6,18,0.00,,,0.00,VWS V13.01,2013-05-21 16:41:00,
2013-05-21 12:46:00,86.7,39.6,0.00,SW,226,2.2,3.6,19,0.00,,,0.00,VWS V13.01,2013-05-21 16:46:00,
2013-05-21 12:51:00,87.1,38.5,0.00,SW,229,2.7,3.1,18,0.00,,,0.00,VWS V13.01,2013-05-21 16:51:00,
2013-05-21 12:56:00,87.3,40.0,0.00,West,262,2.7,3.6,19,0.00,,,0.00,VWS V13.01,2013-05-21 16:56:00,
2013-05-21 13:01:00,87.4,38.8,0.00,SW,230,4.9,4.9,18,0.00,,,0.00,VWS V13.01,2013-05-21 17:01:00,
2013-05-21 13:06:00,87.6,35.9,0.00,WNW,294,3.6,4.0,16,0.00,,,0.00,VWS V13.01,2013-05-21 17:06:00,
2013-05-21 13:11:00,87.3,38.6,0.00,West,280,3.1,3.1,18,0.00,,,0.00,VWS V13.01,2013-05-21 17:11:00,
2013-05-21 13:16:00,87.8,39.1,0.00,ESE,123,0.0,4.0,18,0.00,,,0.00,VWS V13.01,2013-05-21 17:16:00,
2013-05-21 13:21:00,88.2,39.4,0.00,SW,219,5.8,5.8,18,0.00,,,0.00,VWS V13.01,2013-05-21 17:21:00,
2013-05-21 13:26:00,88.2,39.4,0.00,SSW,210,3.6,5.4,18,0.00,,,0.00,VWS V13.01,2013-05-21 17:26:00,
2013-05-21 13:31:00,87.8,39.1,0.00,WSW,238,2.7,5.4,18,0.00,,,0.00,VWS V13.01,2013-05-21 17:31:00,
2013-05-21 13:36:00,87.8,39.1,0.00,WNW,282,2.2,5.4,18,0.00,,,0.00,VWS V13.01,2013-05-21 17:36:00,
2013-05-21 13:41:00,88.0,39.2,0.00,ESE,120,4.9,5.4,18,0.00,,,0.00,VWS V13.01,2013-05-21 17:41:00,
2013-05-21 13:46:00,87.6,38.9,0.00,East,86,5.8,6.3,18,0.00,,,0.00,VWS V13.01,2013-05-21 17:46:00,
2013-05-21 13:51:00,87.4,38.8,0.00,East,95,5.4,5.4,18,0.00,,,0.00,VWS V13.01,2013-05-21 17:51:00,
2013-05-21 13:56:00,88.0,39.2,0.00,NE,41,0.0,2.2,18,0.00,,,0.00,VWS V13.01,2013-05-21 17:56:00,
2013-05-21 14:01:00,88.7,39.8,0.00,South,189,0.0,2.2,18,0.00,,,0.00,VWS V13.01,2013-05-21 18:01:00,
2013-05-21 14:06:00,89.2,35.6,0.00,WSW,254,6.3,6.3,15,0.00,,,0.00,VWS V13.01,2013-05-21 18:06:00,
2013-05-21 14:11:00,89.2,35.6,0.00,West,266,6.3,7.6,15,0.00,,,0.00,VWS V13.01,2013-05-21 18:11:00,
2013-05-21 14:16:00,88.9,35.3,0.00,SSW,208,2.7,2.7,15,0.00,,,0.00,VWS V13.01,2013-05-21 18:16:00,
2013-05-21 14:21:00,89.6,39.1,0.00,WSW,239,4.9,4.9,17,0.00,,,0.00,VWS V13.01,2013-05-21 18:21:00,
2013-05-21 14:27:00,89.6,35.9,0.00,South,187,0.0,2.7,15,0.00,,,0.00,VWS V13.01,2013-05-21 18:27:00,
2013-05-21 14:32:00,89.8,36.0,0.00,WSW,256,0.0,4.0,15,0.00,,,0.00,VWS V13.01,2013-05-21 18:32:00,
2013-05-21 14:37:00,90.0,36.2,0.00,WSW,251,6.3,6.3,15,0.00,,,0.00,VWS V13.01,2013-05-21 18:37:00,
2013-05-21 14:42:00,89.2,35.6,0.00,South,191,4.0,5.4,15,0.00,,,0.00,VWS V13.01,2013-05-21 18:42:00,
2013-05-21 14:47:00,89.2,40.2,0.00,NW,305,3.1,3.1,18,0.00,,,0.00,VWS V13.01,2013-05-21 18:47:00,
2013-05-21 14:52:00,89.6,35.9,0.00,SE,130,0.0,3.1,15,0.00,,,0.00,VWS V13.01,2013-05-21 18:52:00,
2013-05-21 14:57:00,89.8,39.2,0.00,ESE,104,2.2,3.6,17,0.00,,,0.00,VWS V13.01,2013-05-21 18:57:00,
2013-05-21 15:02:00,90.1,39.5,0.00,West,277,3.1,4.9,17,0.00,,,0.00,VWS V13.01,2013-05-21 19:02:00,
2013-05-21 15:07:00,90.3,36.5,0.00,ESE,110,5.4,5.4,15,0.00,,,0.00,VWS V13.01,2013-05-21 19:07:00,
2013-05-21 15:12:00,90.1,36.3,0.00,South,173,3.1,4.0,15,0.00,,,0.00,VWS V13.01,2013-05-21 19:12:00,
2013-05-21 15:17:00,90.1,36.3,0.00,ESE,117,4.9,4.9,15,0.00,,,0.00,VWS V13.01,2013-05-21 19:17:00,
2013-05-21 15:22:00,89.8,36.0,0.00,West,273,5.8,7.6,15,0.00,,,0.00,VWS V13.01,2013-05-21 19:22:00,
2013-05-21 15:27:00,89.4,35.7,0.00,West,278,8.3,8.3,15,0.00,,,0.00,VWS V13.01,2013-05-21 19:27:00,
2013-05-21 15:32:00,89.6,39.1,0.00,SW,236,2.2,2.7,17,0.00,,,0.00,VWS V13.01,2013-05-21 19:32:00,
2013-05-21 15:38:00,90.3,36.5,0.00,WNW,286,2.2,3.1,15,0.00,,,0.00,VWS V13.01,2013-05-21 19:38:00,
2013-05-21 15:43:00,90.7,36.7,0.00,ESE,106,2.7,5.4,15,0.00,,,0.00,VWS V13.01,2013-05-21 19:43:00,
2013-05-21 15:48:00,90.7,36.7,0.00,SSE,162,4.0,4.9,15,0.00,,,0.00,VWS V13.01,2013-05-21 19:48:00,
2013-05-21 15:53:00,90.0,30.6,0.00,NW,313,3.1,7.6,12,0.00,,,0.00,VWS V13.01,2013-05-21 19:53:00,
2013-05-21 15:58:00,90.1,36.3,0.00,SE,139,5.4,5.4,15,0.00,,,0.00,VWS V13.01,2013-05-21 19:58:00,
2013-05-21 16:03:00,90.3,36.5,0.00,SE,124,5.4,5.4,15,0.00,,,0.00,VWS V13.01,2013-05-21 20:03:00,
2013-05-21 16:08:00,90.0,36.2,0.00,SE,140,3.6,4.0,15,0.00,,,0.00,VWS V13.01,2013-05-21 20:08:00,
2013-05-21 16:13:00,90.0,36.2,0.00,SE,139,3.6,4.9,15,0.00,,,0.00,VWS V13.01,2013-05-21 20:13:00,
2013-05-21 16:18:00,89.8,30.5,0.00,SW,235,4.0,5.8,12,0.00,,,0.00,VWS V13.01,2013-05-21 20:18:00,
2013-05-21 16:23:00,89.4,35.7,0.00,SSE,154,3.6,4.9,15,0.00,,,0.00,VWS V13.01,2013-05-21 20:23:00,
2013-05-21 16:28:00,89.1,35.5,0.00,East,85,2.7,2.7,15,0.00,,,0.00,VWS V13.01,2013-05-21 20:28:00,
2013-05-21 16:33:00,89.8,36.0,0.00,North,2,5.8,5.8,15,0.00,,,0.00,VWS V13.01,2013-05-21 20:33:00,
2013-05-21 16:38:00,90.0,36.2,0.00,East,87,2.7,4.0,15,0.00,,,0.00,VWS V13.01,2013-05-21 20:38:00,
2013-05-21 16:43:00,90.5,31.0,0.00,South,180,5.4,5.4,12,0.00,,,0.00,VWS V13.01,2013-05-21 20:43:00,
2013-05-21 16:48:00,90.3,30.9,0.00,SW,218,4.0,5.8,12,0.00,,,0.00,VWS V13.01,2013-05-21 20:48:00,
2013-05-21 16:53:00,90.0,30.6,0.00,SE,140,6.3,6.3,12,0.00,,,0.00,VWS V13.01,2013-05-21 20:53:00,
2013-05-21 16:58:00,89.6,30.3,0.00,NNE,30,2.7,5.4,12,0.00,,,0.00,VWS V13.01,2013-05-21 20:58:00,
2013-05-21 17:04:00,89.4,35.7,0.00,ESE,123,3.1,3.6,15,0.00,,,0.00,VWS V13.01,2013-05-21 21:04:00,
2013-05-21 17:09:00,90.0,36.2,0.00,ESE,121,8.7,8.7,15,0.00,,,0.00,VWS V13.01,2013-05-21 21:09:00,
2013-05-21 17:14:00,90.1,36.3,0.00,ESE,104,6.3,6.7,15,0.00,,,0.00,VWS V13.01,2013-05-21 21:14:00,
2013-05-21 17:19:00,90.1,30.7,0.00,NW,320,3.1,7.6,12,0.00,,,0.00,VWS V13.01,2013-05-21 21:19:00,
2013-05-21 17:24:00,90.0,30.6,0.00,WNW,293,8.7,8.7,12,0.00,,,0.00,VWS V13.01,2013-05-21 21:24:00,
2013-05-21 17:29:00,89.4,32.2,0.00,SE,126,8.3,12.8,13,0.00,,,0.00,VWS V13.01,2013-05-21 21:29:00,
2013-05-21 17:34:00,88.9,35.3,0.00,SW,222,8.1,8.1,15,0.00,,,0.00,VWS V13.01,2013-05-21 21:34:00,
2013-05-21 17:39:00,88.7,35.2,0.00,WSW,247,4.9,7.6,15,0.00,,,0.00,VWS V13.01,2013-05-21 21:39:00,
2013-05-21 17:44:00,88.9,35.3,0.00,SSW,200,7.2,7.2,15,0.00,,,0.00,VWS V13.01,2013-05-21 21:44:00,
2013-05-21 17:49:00,88.9,35.3,0.00,West,279,2.7,6.3,15,0.00,,,0.00,VWS V13.01,2013-05-21 21:49:00,
2013-05-21 17:55:00,88.9,35.3,0.00,West,274,5.4,5.4,15,0.00,,,0.00,VWS V13.01,2013-05-21 21:55:00,
2013-05-21 18:00:00,88.9,35.3,0.00,WSW,253,3.6,5.8,15,0.00,,,0.00,VWS V13.01,2013-05-21 22:00:00,
2013-05-21 18:05:00,88.5,35.0,0.00,WNW,282,0.0,0.0,15,0.00,,,0.00,VWS V13.01,2013-05-21 22:05:00,
2013-05-21 18:10:00,88.0,34.6,0.00,West,271,5.4,8.3,15,0.00,,,0.00,VWS V13.01,2013-05-21 22:10:00,
2013-05-21 18:15:00,87.1,35.5,0.00,East,98,4.0,13.6,16,0.00,,,0.00,VWS V13.01,2013-05-21 22:15:00,
2013-05-21 18:20:00,84.2,33.2,0.00,ENE,58,3.6,3.6,16,0.00,,,0.00,VWS V13.01,2013-05-21 22:20:00,
2013-05-21 18:25:00,82.0,35.8,0.00,ESE,113,3.6,8.1,19,0.00,,,0.00,VWS V13.01,2013-05-21 22:25:00,
2013-05-21 18:30:00,81.1,37.5,0.00,NE,54,3.1,3.6,21,0.00,,,0.00,VWS V13.01,2013-05-21 22:30:00,
2013-05-21 18:35:00,81.1,36.3,0.00,SE,146,4.9,5.4,20,0.00,,,0.00,VWS V13.01,2013-05-21 22:35:00,
2013-05-21 18:40:00,80.4,37.0,0.00,East,91,5.8,6.3,21,0.00,,,0.00,VWS V13.01,2013-05-21 22:40:00,
2013-05-21 18:45:00,79.7,37.5,0.00,ESE,109,6.3,6.3,22,0.00,,,0.00,VWS V13.01,2013-05-21 22:45:00,
2013-05-21 18:50:00,79.0,36.9,0.00,ENE,71,5.8,5.8,22,0.00,,,0.00,VWS V13.01,2013-05-21 22:50:00,
2013-05-21 18:56:00,78.3,38.5,0.00,East,82,2.7,4.0,24,0.00,,,0.00,VWS V13.01,2013-05-21 22:56:00,
2013-05-21 19:01:00,77.9,38.2,0.00,SSE,150,5.8,5.8,24,0.00,,,0.00,VWS V13.01,2013-05-21 23:01:00,
2013-05-21 19:06:00,77.7,38.1,0.00,East,96,4.0,4.0,24,0.00,,,0.00,VWS V13.01,2013-05-21 23:06:00,
2013-05-21 19:11:00,77.5,37.9,0.00,ESE,104,4.9,5.8,24,0.00,,,0.00,VWS V13.01,2013-05-21 23:11:00,
2013-05-21 19:16:00,77.4,37.8,0.00,ESE,115,3.6,3.6,24,0.00,,,0.00,VWS V13.01,2013-05-21 23:16:00,
2013-05-21 19:21:00,77.2,37.6,0.00,East,99,6.3,6.3,24,0.00,,,0.00,VWS V13.01,2013-05-21 23:21:00,
2013-05-21 19:26:00,77.4,37.8,0.00,SE,131,5.8,5.8,24,0.00,,,0.00,VWS V13.01,2013-05-21 23:26:00,
2013-05-21 19:31:00,77.5,37.9,0.00,SSE,167,4.0,4.9,24,0.00,,,0.00,VWS V13.01,2013-05-21 23:31:00,
2013-05-21 19:36:00,77.5,37.9,0.00,ESE,106,3.1,3.1,24,0.00,,,0.00,VWS V13.01,2013-05-21 23:36:00,
2013-05-21 19:41:00,77.4,37.8,0.00,ESE,107,3.6,4.0,24,0.00,,,0.00,VWS V13.01,2013-05-21 23:41:00,
2013-05-21 19:46:00,77.2,37.6,0.00,SE,128,2.2,2.7,24,0.00,,,0.00,VWS V13.01,2013-05-21 23:46:00,
2013-05-21 19:51:00,76.8,38.4,0.00,ESE,103,4.0,4.9,25,0.00,,,0.00,VWS V13.01,2013-05-21 23:51:00,
2013-05-21 19:56:00,76.6,39.2,0.00,ESE,109,3.1,4.9,26,0.00,,,0.00,VWS V13.01,2013-05-21 23:56:00,
2013-05-21 20:01:00,76.5,40.0,0.00,SE,137,3.6,5.8,27,0.00,,,0.00,VWS V13.01,2013-05-22 00:01:00,
2013-05-21 20:07:00,76.5,40.0,0.00,East,97,3.1,4.9,27,0.00,,,0.00,VWS V13.01,2013-05-22 00:07:00,
2013-05-21 20:12:00,76.5,41.0,0.00,ESE,118,4.0,4.0,28,0.00,,,0.00,VWS V13.01,2013-05-22 00:12:00,
2013-05-21 20:17:00,76.3,40.8,0.00,SE,126,0.0,3.6,28,0.00,,,0.00,VWS V13.01,2013-05-22 00:17:00,
2013-05-21 20:22:00,76.1,41.6,0.00,East,91,3.6,3.6,29,0.00,,,0.00,VWS V13.01,2013-05-22 00:22:00,
2013-05-21 20:27:00,75.9,42.3,0.00,ESE,120,2.7,2.7,30,0.00,,,0.00,VWS V13.01,2013-05-22 00:27:00,
2013-05-21 20:32:00,75.6,42.8,0.00,ENE,59,2.7,4.0,31,0.00,,,0.00,VWS V13.01,2013-05-22 00:32:00,
2013-05-21 20:37:00,75.4,44.3,0.00,SE,138,4.9,4.9,33,0.00,,,0.00,VWS V13.01,2013-05-22 00:37:00,
2013-05-21 20:42:00,74.7,45.2,0.00,ESE,109,4.0,4.0,35,0.00,,,0.00,VWS V13.01,2013-05-22 00:42:00,
2013-05-21 20:47:00,74.5,45.8,0.00,ENE,77,3.6,5.8,36,0.00,,,0.00,VWS V13.01,2013-05-22 00:47:00,
2013-05-21 20:52:00,74.1,46.2,0.00,ENE,72,4.0,6.3,37,0.00,,,0.00,VWS V13.01,2013-05-22 00:52:00,
2013-05-21 20:57:00,74.3,47.1,0.00,East,99,4.9,4.9,38,0.00,,,0.00,VWS V13.01,2013-05-22 00:57:00,
2013-05-21 21:02:00,74.3,47.1,0.00,East,95,4.0,5.8,38,0.00,,,0.00,VWS V13.01,2013-05-22 01:02:00,
2013-05-21 21:07:00,74.5,47.2,0.00,ESE,112,3.6,3.6,38,0.00,,,0.00,VWS V13.01,2013-05-22 01:07:00,
2013-05-21 21:12:00,74.5,47.9,0.00,ESE,107,3.6,3.6,39,0.00,,,0.00,VWS V13.01,2013-05-22 01:12:00,
2013-05-21 21:17:00,74.7,48.8,0.00,ESE,103,4.0,4.0,40,0.00,,,0.00,VWS V13.01,2013-05-22 01:17:00,
2013-05-21 21:22:00,74.7,48.8,0.00,ENE,62,4.0,4.0,40,0.00,,,0.00,VWS V13.01,2013-05-22 01:22:00,
2013-05-21 21:27:00,74.8,49.6,0.00,ESE,123,2.2,4.0,41,0.00,,,0.00,VWS V13.01,2013-05-22 01:27:00,
2013-05-21 21:32:00,74.7,49.4,0.00,ESE,107,3.6,4.0,41,0.00,,,0.00,VWS V13.01,2013-05-22 01:32:00,
2013-05-21 21:37:00,73.9,50.1,0.00,ESE,105,5.4,5.4,43,0.00,,,0.00,VWS V13.01,2013-05-22 01:37:00,
2013-05-21 21:42:00,73.8,50.5,0.00,ESE,109,3.6,3.6,44,0.00,,,0.00,VWS V13.01,2013-05-22 01:42:00,
2013-05-21 21:47:00,73.9,50.7,0.00,ESE,119,2.7,3.6,44,0.00,,,0.00,VWS V13.01,2013-05-22 01:47:00,
2013-05-21 21:52:00,73.8,50.5,0.00,ESE,115,2.7,3.1,44,0.00,,,0.00,VWS V13.01,2013-05-22 01:52:00,
2013-05-21 21:57:00,73.8,51.7,0.00,ESE,119,4.0,4.0,46,0.00,,,0.00,VWS V13.01,2013-05-22 01:57:00,
2013-05-21 22:03:00,73.9,51.3,0.00,East,95,0.0,0.0,45,0.00,,,0.00,VWS V13.01,2013-05-22 02:03:00,
2013-05-21 22:08:00,74.1,50.8,0.00,East,99,2.2,2.2,44,0.00,,,0.00,VWS V13.01,2013-05-22 02:08:00,
2013-05-21 22:13:00,73.9,50.7,0.00,East,86,2.7,3.1,44,0.00,,,0.00,VWS V13.01,2013-05-22 02:13:00,
2013-05-21 22:18:00,73.9,50.7,0.00,East,101,0.0,2.2,44,0.00,,,0.00,VWS V13.01,2013-05-22 02:18:00,
2013-05-21 22:23:00,74.1,51.4,0.00,SE,124,2.7,3.6,45,0.00,,,0.00,VWS V13.01,2013-05-22 02:23:00,
2013-05-21 22:28:00,74.1,50.8,0.00,East,92,0.0,0.0,44,0.00,,,0.00,VWS V13.01,2013-05-22 02:28:00,
2013-05-21 22:33:00,74.3,51.0,0.00,SSE,157,2.7,2.7,44,0.00,,,0.00,VWS V13.01,2013-05-22 02:33:00,
2013-05-21 22:38:00,74.8,51.5,0.00,SSW,213,5.4,5.4,44,0.00,,,0.00,VWS V13.01,2013-05-22 02:38:00,
2013-05-21 22:43:00,75.0,50.4,0.00,South,191,0.0,4.0,42,0.00,,,0.00,VWS V13.01,2013-05-22 02:43:00,
2013-05-21 22:48:00,75.2,49.9,0.00,ESE,105,3.6,4.0,41,0.00,,,0.00,VWS V13.01,2013-05-22 02:48:00,
2013-05-21 22:53:00,75.6,50.2,0.00,SE,138,3.1,3.1,41,0.00,,,0.00,VWS V13.01,2013-05-22 02:53:00,
2013-05-21 22:58:00,75.4,49.4,0.00,East,101,2.2,3.1,40,0.00,,,0.00,VWS V13.01,2013-05-22 02:58:00,
2013-05-21 23:03:00,75.0,49.8,0.00,ESE,105,0.0,4.0,41,0.00,,,0.00,VWS V13.01,2013-05-22 03:03:00,
2013-05-21 23:08:00,74.8,50.2,0.00,SSE,147,2.2,2.7,42,0.00,,,0.00,VWS V13.01,2013-05-22 03:08:00,
2013-05-21 23:13:00,74.8,50.2,0.00,SE,139,0.0,0.0,42,0.00,,,0.00,VWS V13.01,2013-05-22 03:13:00,
2013-05-21 23:19:00,75.0,50.4,0.00,East,96,3.1,4.0,42,0.00,,,0.00,VWS V13.01,2013-05-22 03:19:00,
2013-05-21 23:24:00,75.0,50.4,0.00,East,89,4.0,4.0,42,0.00,,,0.00,VWS V13.01,2013-05-22 03:24:00,
2013-05-21 23:29:00,74.7,50.1,0.00,WSW,248,0.0,0.0,42,0.00,,,0.00,VWS V13.01,2013-05-22 03:29:00,
2013-05-21 23:34:00,74.3,50.4,0.00,ESE,112,4.0,4.0,43,0.00,,,0.00,VWS V13.01,2013-05-22 03:34:00,
2013-05-21 23:39:00,73.8,50.5,0.00,ESE,123,0.0,0.0,44,0.00,,,0.00,VWS V13.01,2013-05-22 03:39:00,
2013-05-21 23:44:00,73.4,51.4,0.00,East,93,0.0,3.1,46,0.00,,,0.00,VWS V13.01,2013-05-22 03:44:00,
2013-05-21 23:49:00,73.0,52.2,0.00,ESE,103,0.0,0.0,48,0.00,,,0.00,VWS V13.01,2013-05-22 03:49:00,
2013-05-21 23:54:00,72.7,53.0,0.00,East,94,0.0,0.0,50,0.00,,,0.00,VWS V13.01,2013-05-22 03:54:00,
2013-05-21 23:59:00,72.7,54.1,0.00,South,181,0.0,0.0,52,0.00,,,0.00,VWS V13.01,2013-05-22 03:59:00,